sat.trackr.live / text

‹ back to catalog

STARLINK-34164

NORAD 64177 · 2025-113H

PAYLOAD ACTIVE UNKNOWN

§ Identity

Operator
Country
US
Launch date
2025-05-28
Launch site
AFETR
Launch vehicle
Mass (kg)
RCS (m²)

Purposes: comms

External: N2YO · Heavens-Above · Gunter

§ Orbital elements

Epoch: 2026-05-25T02:49:19.345728Z

Period
94.10 min
Inclination
53.1611°
Eccentricity
0.0001320
Mean motion
15.30210613 rev/d
Perigee alt
474.3 km
Apogee alt
476.1 km
Semi-major
6,853.3 km
B*
5.9285e-4
RAAN
96.3407°
Arg perigee
86.4759°
Mean anomaly
273.6393°
Rev number
5,676

§ Raw data

STARLINK-341641 64177U 25113H   26145.11758502  .00017246  00000+0  59285-3 0  99952 64177  53.1611  96.3407 0001320  86.4759 273.6393 15.30210613 56767

JSON: /api/v1/satellites/64177 · /tle

For live sub-satellite position, see the globe view (requires WebGL).

§ Visibility from observer

Set your observer location to see the next 7 days of passes ≥ 10°. The values pass through the URL so the page stays shareable.

No JS? Fill the form by hand. The geolocation button needs JavaScript.